This demonstration page uses our WeatherBlox Daily Observations layout. Learn more.

Left ArrowRight Arrow

39.51506, -84.39828

Hourly Observations for February 9, 2020

Temp ( °F °C ) Dew Point ( °F °C ) Humidity (%) Winds ( mph kmh ) Pressure ( in mb ) Visibility ( mi km ) Precip ( " mm )
12:15 am 00:15 Cloudy 31 -0.5 28 -2.3 88 88 WSW 5 7 30.36 1028 10 16.0934 0 0
12:35 am 00:35 Cloudy 31 -0.4 28 -2.3 87 87 SW 5 7 30.37 1028 10 16.0934 0 0
12:55 am 00:55 Cloudy 31 -0.5 28 -2.2 88 88 SW 7 11 30.38 1029 10 16.0934 0 0
1:15 am 01:15 Cloudy 31 -0.3 28 -2.4 86 86 WSW 7 11 30.38 1029 10 16.0934 0 0
1:35 am 01:35 Cloudy 31 -0.5 28 -2.5 87 87 WSW 6 9 30.39 1029 10 16.0934 0 0
1:55 am 01:55 Cloudy 31 -0.6 28 -2.5 87 87 WSW 5 7 30.39 1029 10 16.0934 0 0
2:15 am 02:15 Cloudy 31 -0.8 27 -2.7 87 87 SW 7 11 30.4 1029 10 16.0934 0 0
2:35 am 02:35 Cloudy 31 -0.7 27 -2.6 87 87 SW 6 9 30.41 1030 10 16.0934 0 0
2:55 am 02:55 Cloudy 31 -0.7 28 -2.5 88 88 SW 5 7 30.42 1030 10 16.0934 0 0
3:15 am 03:15 Cloudy 31 -0.8 27 -2.6 88 88 WSW 3 6 30.42 1030 10 16.0934 0 0
3:35 am 03:35 Cloudy 31 -0.8 27 -2.6 88 88 SW 5 7 30.42 1030 10 16.0934 0 0
3:55 am 03:55 Cloudy 30 -0.9 27 -2.7 88 88 SW 3 6 30.42 1030 10 16.0934 0 0
4:15 am 04:15 Cloudy 30 -0.9 27 -2.6 88 88 SW 3 6 30.42 1030 7 11.26538 0 0
4:35 am 04:35 Cloudy 30 -1.2 27 -2.9 88 88 Calm 30.43 1030 7 11.26538 0 0
4:55 am 04:55 Clear 27 -2.8 25 -4 92 92 Calm 30.43 1031 7 11.26538 0 0
5:15 am 05:15 Partly Cloudy with Mist and Fog 27 -2.7 26 -3.4 95 95 Calm 30.43 1031 5 8.0467 0 0
5:35 am 05:35 Partly Cloudy with Mist and Fog 27 -2.8 26 -3.4 96 96 Calm 30.43 1031 5 8.0467 0 0
5:55 am 05:55 Clear with Mist and Fog 25 -3.8 24 -4.4 96 96 Calm 30.44 1031 4 6.43736 0 0
6:15 am 06:15 Clear with Mist and Fog 26 -3.5 25 -3.7 99 99 Calm 30.45 1031 3.5 5.63269 0 0
6:35 am 06:35 Clear with Mist and Fog 25 -3.9 24 -4.2 98 98 Calm 30.44 1031 3 4.82802 0 0
6:55 am 06:55 Partly Cloudy with Mist and Fog 23 -5 23 -5 100 100 Calm 30.44 1031 3 4.82802 0 0
7:15 am 07:15 Clear with Mist and Fog 25 -4.1 24 -4.5 97 97 Calm 30.44 1031 3 4.82802 0 0
7:35 am 07:35 Clear with Mist and Fog 24 -4.3 24 -4.7 97 97 Calm 30.44 1031 3 4.82802 0 0
7:55 am 07:55 Sunny with Mist and Fog 24 -4.3 24 -4.7 97 97 Calm 30.46 1031 2.5 4.02335 0 0
8:15 am 08:15 Sunny with Mist and Fog 25 -3.9 24 -4.2 98 98 Calm 30.46 1031 2.5 4.02335 0 0
8:35 am 08:35 Sunny with Mist and Fog 28 -2.2 28 -2.5 98 98 SSE 5 7 30.45 1031 3 4.82802 0 0
8:55 am 08:55 Sunny with Mist and Fog 29 -1.5 28 -2.4 94 94 SE 6 9 30.44 1031 3.5 5.63269 0 0
9:15 am 09:15 Partly Cloudy with Mist and Fog 30 -0.9 27 -2.6 88 88 S 6 9 30.44 1031 5 8.0467 0 0
9:35 am 09:35 Sunny 31 -0.4 26 -3.3 81 81 SSE 8 13 30.45 1031 7 11.26538 0 0
9:55 am 09:55 Sunny 32 -0.2 25 -3.7 78 78 SSE 12 19 30.43 1030 10 16.0934 0 0
10:15 am 10:15 Mostly Cloudy 32 -0.1 25 -3.7 77 77 SSE 12 19 30.43 1030 10 16.0934 0 0
10:35 am 10:35 Cloudy 32 0 26 -3.5 78 78 S 8 13 30.45 1031 10 16.0934 0 0
10:55 am 10:55 Mostly Cloudy 33 0.8 26 -3.5 73 73 S 13 20 30.45 1031 10 16.0934 0 0
11:15 am 11:15 Cloudy 33 0.8 26 -3.6 73 73 S 10 17 30.45 1031 10 16.0934 0 0
11:35 am 11:35 Cloudy 34 0.9 26 -3.5 73 73 S 10 17 30.44 1031 10 16.0934 0 0
11:55 am 11:55 Cloudy 34 1 26 -3.6 72 72 S 14 22 30.41 1030 10 16.0934 0 0
12:15 pm 12:15 Cloudy 35 1.5 26 -3.4 70 70 SSE 13 20 30.4 1030 10 16.0934 0 0
12:35 pm 12:35 Cloudy 35 1.4 25 -3.9 68 68 SSE 13 20 30.39 1029 10 16.0934 0 0
12:55 pm 12:55 Cloudy 35 1.7 25 -3.8 67 67 SSE 13 20 30.37 1028 10 16.0934 0 0
1:15 pm 13:15 Cloudy 35 1.9 25 -3.8 66 66 SSE 14 22 30.36 1028 10 16.0934 0 0
1:35 pm 13:35 Cloudy 36 2.1 26 -3.5 67 67 SSE 9 15 30.34 1027 10 16.0934 0 0
1:55 pm 13:55 Cloudy 36 2.4 26 -3.5 65 65 S 7 11 30.34 1027 10 16.0934 0 0
2:15 pm 14:15 Cloudy with Haze 37 2.6 26 -3.3 65 65 SSE 9 15 30.31 1026 5 8.0467 0 0
2:35 pm 14:35 Cloudy with Light Snow 34 0.9 30 -1.1 87 87 SSE 12 19 30.3 1026 1 1.60934 0 0
2:55 pm 14:55 Cloudy with Light Snow 33 0.6 31 -0.5 92 92 SE 5 7 30.28 1026 2.5 4.02335 0 0
3:15 pm 15:15 Cloudy 33 0.8 31 -0.7 90 90 ESE 8 13 30.23 1024 10 16.0934 0 0
3:35 pm 15:35 Cloudy 34 1.3 31 -0.8 86 86 SE 7 11 30.22 1023 10 16.0934 0 0
3:55 pm 15:55 Cloudy 35 1.7 31 -0.7 84 84 SE 3 6 30.22 1023 10 16.0934 0 0
4:15 pm 16:15 Cloudy 36 2.1 32 -0.1 86 86 ESE 5 7 30.2 1023 10 16.0934 0 0
4:35 pm 16:35 Cloudy 36 2.2 31 -0.3 84 84 ENE 5 7 30.21 1023 10 16.0934 0 0
4:55 pm 16:55 Cloudy with Light Rain 35 1.9 32 -0.1 87 87 E 7 11 30.18 1022 5 8.0467 0 0
5:15 pm 17:15 Cloudy with Light Rain 36 2.1 32 -0.1 86 86 SE 7 11 30.17 1022 10 16.0934 0 0
5:35 pm 17:35 Cloudy with Light Rain 36 2.3 32 -0.2 84 84 SE 7 11 30.15 1021 10 16.0934 0 0
5:55 pm 17:55 Cloudy with Light Rain 36 2.3 31 -0.3 83 83 SSE 7 11 30.15 1021 10 16.0934 0 0
6:15 pm 18:15 Cloudy with Light Rain 37 2.5 31 -0.3 82 82 SE 7 11 30.14 1021 7 11.26538 0 0
6:35 pm 18:35 Cloudy with Rain 37 2.8 32 -0.1 81 81 ESE 5 7 30.13 1020 7 11.26538 0 0
6:55 pm 18:55 Cloudy with Light Rain 37 2.5 33 0.5 87 87 NE 3 6 30.14 1021 10 16.0934 0 0
7:15 pm 19:15 Cloudy with Light Rain 36 2.4 34 1 91 91 Calm 30.14 1021 10 16.0934 0 0
7:35 pm 19:35 Cloudy with Light Rain 36 2.3 34 1.2 93 93 NE 5 7 30.12 1020 10 16.0934 0 0
7:55 pm 19:55 Cloudy with Light Rain 36 2.2 34 1.3 94 94 E 3 6 30.09 1019 7 11.26538 0 0
8:15 pm 20:15 Cloudy with Light Rain 36 2.2 35 1.5 95 95 Calm 30.09 1019 10 16.0934 0 0
8:35 pm 20:35 Cloudy with Light Rain 37 3 35 1.4 89 89 SE 3 6 30.08 1019 10 16.0934 0.01 0.254
8:55 pm 20:55 Cloudy 38 3.1 35 1.6 90 90 S 3 6 30.08 1019 10 16.0934 0.01 0.254
9:15 pm 21:15 Cloudy with Light Rain 38 3.4 35 1.9 90 90 Calm 30.06 1018 10 16.0934 0 0
9:35 pm 21:35 Cloudy 38 3.3 36 2.1 92 92 Calm 30.06 1018 10 16.0934 0 0
9:55 pm 21:55 Cloudy with Light Rain 38 3.5 37 2.6 94 94 S 7 11 30.05 1017 10 16.0934 0 0
10:15 pm 22:15 Cloudy with Rain 39 4.1 37 3 93 93 SW 6 9 30.05 1018 7 11.26538 0 0
10:35 pm 22:35 Cloudy with Light Rain 40 4.2 38 3.3 94 94 S 9 15 30.05 1018 10 16.0934 0 0
10:55 pm 22:55 Cloudy with Rain 42 5.6 39 4 90 90 S 10 17 30.04 1017 10 16.0934 0 0
11:15 pm 23:15 Cloudy with Light Rain 42 5.6 40 4.2 91 91 S 10 17 30.03 1017 10 16.0934 0 0
11:35 pm 23:35 Cloudy with Light Rain 42 5.8 39 4.1 89 89 S 12 19 30.03 1017 10 16.0934 0 0
11:55 pm 23:55 Mostly Cloudy with Light Rain 43 6 39 4.1 88 88 S 12 19 30.03 1017 10 16.0934 0 0

Powered by AerisWeather